CW4167 Weather Reports


time (UTC)temp
C
wind
direction
speed
KPH
gust
KPH
rain 1hr
cm
rain 24hr
cm
rain mn
cm
humidity
%
barometer
mb
20260503054705 10 320 14.5 20.9 0.00 0.00 0.00 87 1009.5
20260503053708 10 307 8.0 20.9 0.00 0.00 0.00 87 1009.5
20260503053206 10 310 9.7 22.5 0.00 0.00 0.00 87 1009.4
20260503045706 11 291 11.3 16.1 0.00 0.00 0.00 88 1009.4
20260503045207 11 292 8.0 16.1 0.00 0.00 0.00 88 1009.4
20260503044206 11 287 8.0 12.9 0.00 0.00 0.00 88 1009.2
20260503043705 10 278 8.0 16.1 0.00 0.00 0.00 88 1009.2
20260503042205 10 242 3.2 8.0 0.00 0.00 0.00 87 1009.4
20260503041705 10 237 1.6 4.8 0.00 0.00 0.00 87 1009.4
20260503035705 10 189 1.6 9.7 0.00 0.00 0.00 86 1009.6
20260503035205 10 167 6.4 9.7 0.00 0.00 0.00 85 1009.6
20260503034205 10 158 4.8 4.8 0.00 0.00 0.00 85 1009.3
20260503033206 10 166 6.4 9.7 0.00 0.00 0.00 84 1009.1
20260503032206 10 178 8.0 9.7 0.00 0.00 0.00 84 1009.1
20260503031706 10 188 4.8 9.7 0.00 0.00 0.00 84 1009.2
20260503030205 10 198 8.0 9.7 0.00 0.00 0.00 83 1009.5
20260503025207 11 190 4.8 9.7 0.00 0.00 0.00 82 1009.5
20260503024205 11 214 4.8 11.3 0.00 0.00 0.00 82 1009.4
20260503022706 11 188 6.4 12.9 0.00 0.00 0.00 80 1009.3
20260503021206 11 204 4.8 11.3 0.00 0.00 0.00 78 1009.4
20260503020207 11 175 9.7 12.9 0.00 0.00 0.00 77 1009.4
20260503015706 11 217 8.0 16.1 0.00 0.00 0.00 76 1009.4
20260503013206 11 193 8.0 11.3 0.00 0.00 0.00 73 1009.4
20260503012706 11 180 4.8 9.7 0.00 0.00 0.00 72 1009.4
20260503012205 11 204 6.4 11.3 0.00 0.00 0.00 71 1009.4
20260503011705 11 210 6.4 8.0 0.00 0.00 0.00 70 1009.5
20260503011205 11 185 6.4 8.0 0.00 0.00 0.00 70 1009.5
20260503010706 11 185 3.2 8.0 0.00 0.00 0.00 69 1009.5
20260503005706 11 158 6.4 9.7 0.00 0.00 0.00 68 1009.4
20260503004206 12 165 3.2 4.8 0.00 0.00 0.00 67 1009.5
20260503003706 12 165 1.6 3.2 0.00 0.00 0.00 67 1009.5
20260503003205 12 165 4.8 8.0 0.00 0.00 0.00 66 1009.4
20260503002705 12 166 4.8 8.0 0.00 0.00 0.00 66 1009.5
20260503001706 12 179 6.4 8.0 0.00 0.00 0.00 66 1009.5
20260502235205 12 178 6.4 9.7 0.00 0.00 0.00 64 1009.8
20260502234207 13 165 8.0 9.7 0.00 0.00 0.00 63 1009.9
20260502233208 13 158 4.8 8.0 0.00 0.00 0.00 62 1010.1
20260502231705 13 157 4.8 8.0 0.00 0.00 0.00 61 1010.3
20260502231205 13 166 8.0 9.7 0.00 0.00 0.00 61 1010.3
20260502224206 14 230 3.2 8.0 0.00 0.00 0.00 58 1010.4
20260502223705 14 197 4.8 9.7 0.00 0.00 0.00 58 1010.4
20260502222706 15 185 4.8 8.0 0.00 0.00 0.00 57 1010.4
20260502215206 16 177 4.8 8.0 0.00 0.00 0.00 55 1010.5
20260502214206 16 217 4.8 8.0 0.00 0.00 0.00 54 1010.5
20260502212206 16 175 6.4 9.7 0.00 0.00 0.00 54 1010.6
20260502211706 16 181 4.8 8.0 0.00 0.00 0.00 54 1010.6
20260502210206 16 164 6.4 9.7 0.00 0.00 0.00 52 1010.7
20260502205706 16 183 4.8 8.0 0.00 0.00 0.00 51 1010.7
20260502205205 16 187 4.8 8.0 0.00 0.00 0.00 51 1010.8
20260502204705 16 251 4.8 8.0 0.00 0.00 0.00 50 1010.7
20260502204205 17 251 4.8 8.0 0.00 0.00 0.00 51 1010.7
20260502202705 17 251 4.8 4.8 0.00 0.00 0.00 51 1010.7
20260502201705 17 255 1.6 3.2 0.00 0.00 0.00 50 1010.7
20260502201205 17 255 1.6 8.0 0.00 0.00 0.00 50 1010.7
20260502194206 18 252 3.2 9.7 0.00 0.00 0.00 47 1010.9
20260502193706 18 260 3.2 9.7 0.00 0.00 0.00 47 1010.9
20260502191705 18 252 4.8 11.3 0.00 0.00 0.00 47 1010.9
20260502190705 19 286 4.8 8.0 0.00 0.00 0.00 46 1010.9
20260502190205 19 284 6.4 14.5 0.00 0.00 0.00 47 1010.9
20260502185705 20 271 4.8 11.3 0.00 0.00 0.00 46 1010.9
20260502184205 20 231 3.2 9.7 0.00 0.00 0.00 47 1010.9
20260502183705 20 205 4.8 11.3 0.00 0.00 0.00 47 1010.9
20260502182704 20 237 4.8 8.0 0.00 0.00 0.00 46 1010.7
20260502182205 21 237 4.8 11.3 0.00 0.00 0.00 45 1010.7
20260502181204 21 232 8.0 9.7 0.00 0.00 0.00 45 1010.7
20260502163706 24 199 19.3 27.4 0.00 0.00 0.00 37 1011.3
20260502163205 24 211 9.7 32.2 0.00 0.00 0.00 37 1011.3
20260502162207 24 207 20.9 35.4 0.00 0.00 0.00 36 1011.3
20260502160705 24 191 20.9 32.2 0.00 0.00 0.00 36 1011.3
20260502152204 25 216 16.1 29.0 0.00 0.00 0.00 38 1011.7
20260502151704 25 233 14.5 27.4 0.00 0.00 0.00 37 1011.9
20260502151205 25 207 20.9 27.4 0.00 0.00 0.00 37 1012.0
20260502150705 25 216 25.7 40.2 0.00 0.00 0.00 36 1012.0
20260502150205 25 212 17.7 25.7 0.00 0.00 0.00 38 1012.0
20260502130704 24 203 25.7 37.0 0.00 0.00 0.00 38 1013.2
20260502130205 24 181 17.7 33.8 0.00 0.00 0.00 38 1013.3
20260502121704 23 190 19.3 32.2 0.00 0.00 0.00 40 1013.9
20260502115706 23 190 22.5 33.8 0.00 0.00 0.00 40 1014.1
20260502115206 23 185 27.4 40.2 0.00 0.00 0.00 38 1014.3
20260502114206 23 209 24.1 32.2 0.00 0.00 0.00 39 1014.4
20260502112706 23 193 16.1 35.4 0.00 0.00 0.00 43 1014.4
20260502112208 23 200 19.3 29.0 0.00 0.00 0.00 41 1014.5
20260502111706 23 205 22.5 32.2 0.00 0.00 0.00 41 1014.7
20260502105705 23 163 14.5 27.4 0.00 0.00 0.00 43 1014.9
20260502104706 23 169 20.9 29.0 0.00 0.00 0.00 44 1014.9
20260502104207 23 225 11.3 22.5 0.00 0.00 0.00 43 1015.0
20260502103705 23 206 19.3 32.2 0.00 0.00 0.00 42 1015.0
20260502103206 23 189 16.1 25.7 0.00 0.00 0.00 44 1015.0
20260502102706 23 211 9.7 25.7 0.00 0.00 0.00 45 1015.0
20260502102206 22 209 11.3 32.2 0.00 0.00 0.00 44 1015.0
20260502101206 22 196 14.5 32.2 0.00 0.00 0.00 46 1015.1
20260502100706 22 172 19.3 32.2 0.00 0.00 0.00 45 1015.2
20260502091205 21 175 16.1 25.7 0.00 0.00 0.00 50 1015.7
20260502090706 21 182 12.9 24.1 0.00 0.00 0.00 53 1015.7
20260502071206 17 181 19.3 32.2 0.00 0.00 0.00 58 1016.4
20260502070705 17 177 14.5 24.1 0.00 0.00 0.00 58 1016.4
20260502070208 17 159 14.5 22.5 0.00 0.00 0.00 60 1016.4
20260502065705 17 177 14.5 25.7 0.00 0.00 0.00 59 1016.5
20260502065205 16 183 19.3 24.1 0.00 0.00 0.00 59 1016.5
20260502064706 16 186 20.9 27.4 0.00 0.00 0.00 59 1016.5
20260502062707 16 175 19.3 25.7 0.00 0.00 0.00 58 1016.6
20260502061705 16 167 20.9 27.4 0.00 0.00 0.00 57 1016.6
20260502060706 16 170 16.1 32.2 0.00 0.00 0.00 59 1016.7
20260502060205 15 175 17.7 25.7 0.00 0.00 0.00 59 1016.8